| time (UTC) | temp C | wind direction | speed KPH | gust KPH | rain 1hr cm | rain 24hr cm | rain mn cm | humidity % | barometer mb |
| 20260506181104 | 2 | 0 | 1.6 | 3.2 | 0.00 | 0.00 | 0.00 | 81 | 1010.3 |
| 20260506180604 | 2 | 0 | 0.0 | 3.2 | 0.00 | 0.00 | 0.00 | 80 | 1010.3 |
| 20260506180104 | 2 | 0 | 0.0 | 3.2 | 0.00 | 0.00 | 0.00 | 80 | 1010.2 |
| 20260506175604 | 2 | 0 | 1.6 | 4.8 | 0.00 | 0.00 | 0.00 | 80 | 1010.2 |
| 20260506175103 | 2 | 0 | 1.6 | 3.2 | 0.00 | 0.00 | 0.00 | 80 | 1010.2 |
| 20260506174604 | 2 | 0 | 1.6 | 3.2 | 0.00 | 0.00 | 0.00 | 79 | 1010.2 |
| 20260506174104 | 2 | 0 | 1.6 | 4.8 | 0.00 | 0.00 | 0.00 | 78 | 1010.2 |
| 20260506173604 | 2 | 0 | 1.6 | 4.8 | 0.00 | 0.00 | 0.00 | 77 | 1010.1 |
| 20260506173103 | 2 | 0 | 3.2 | 4.8 | 0.00 | 0.00 | 0.00 | 76 | 1010.0 |
| 20260506172604 | 2 | 0 | 3.2 | 4.8 | 0.00 | 0.00 | 0.00 | 75 | 1010.0 |
| 20260506172104 | 2 | 0 | 0.0 | 3.2 | 0.00 | 0.00 | 0.00 | 74 | 1009.9 |
| 20260506171603 | 2 | 0 | 0.0 | 3.2 | 0.00 | 0.00 | 0.00 | 75 | 1009.8 |
| 20260506171104 | 2 | 0 | 1.6 | 4.8 | 0.00 | 0.00 | 0.00 | 77 | 1009.8 |
| 20260506170604 | 2 | 0 | 3.2 | 11.3 | 0.00 | 0.00 | 0.00 | 77 | 1009.8 |
| 20260506170104 | 2 | 0 | 8.0 | 20.9 | 0.00 | 0.00 | 0.00 | 78 | 1010.0 |
| 20260506165604 | 2 | 0 | 8.0 | 24.1 | 0.00 | 0.00 | 0.00 | 78 | 1010.0 |
| 20260506165104 | 2 | 0 | 8.0 | 19.3 | 0.00 | 0.00 | 0.00 | 76 | 1009.9 |
| 20260506164604 | 3 | 0 | 4.8 | 16.1 | 0.00 | 0.00 | 0.00 | 74 | 1009.8 |
| 20260506164104 | 3 | 0 | 1.6 | 4.8 | 0.00 | 0.00 | 0.00 | 73 | 1009.8 |
| 20260506163604 | 3 | 0 | 4.8 | 8.0 | 0.00 | 0.00 | 0.00 | 73 | 1009.7 |
| 20260506163103 | 3 | 0 | 4.8 | 9.7 | 0.00 | 0.00 | 0.00 | 73 | 1009.7 |
| 20260506162604 | 2 | 0 | 3.2 | 9.7 | 0.00 | 0.00 | 0.00 | 77 | 1009.6 |
| 20260506162103 | 2 | 0 | 4.8 | 8.0 | 0.00 | 0.00 | 0.00 | 77 | 1009.7 |
| 20260506161604 | 2 | 0 | 6.4 | 14.5 | 0.00 | 0.00 | 0.00 | 79 | 1009.6 |
| 20260506161104 | 2 | 0 | 3.2 | 12.9 | 0.00 | 0.00 | 0.00 | 80 | 1009.7 |
| 20260506160604 | 2 | 0 | 4.8 | 12.9 | 0.00 | 0.00 | 0.00 | 82 | 1009.7 |
| 20260506160103 | 2 | 0 | 4.8 | 9.7 | 0.00 | 0.00 | 0.00 | 81 | 1009.6 |
| 20260506155603 | 2 | 0 | 8.0 | 24.1 | 0.00 | 0.00 | 0.00 | 79 | 1009.7 |
| 20260506155104 | 2 | 0 | 6.4 | 20.9 | 0.00 | 0.00 | 0.00 | 77 | 1009.7 |
| 20260506154604 | 3 | 0 | 6.4 | 19.3 | 0.00 | 0.00 | 0.00 | 72 | 1009.5 |
| 20260506154104 | 3 | 0 | 8.0 | 20.9 | 0.00 | 0.00 | 0.00 | 72 | 1009.4 |
| 20260506153603 | 3 | 0 | 3.2 | 4.8 | 0.00 | 0.00 | 0.00 | 73 | 1009.3 |
| 20260506153104 | 3 | 0 | 1.6 | 4.8 | 0.00 | 0.00 | 0.00 | 71 | 1009.3 |
| 20260506152603 | 3 | 0 | 0.0 | 4.8 | 0.00 | 0.00 | 0.00 | 73 | 1009.2 |
| 20260506152104 | 3 | 331 | 0.0 | 3.2 | 0.00 | 0.00 | 0.00 | 72 | 1009.2 |
| 20260506151604 | 3 | 358 | 1.6 | 8.0 | 0.00 | 0.00 | 0.00 | 74 | 1009.3 |
| 20260506151103 | 3 | 356 | 1.6 | 4.8 | 0.00 | 0.00 | 0.00 | 74 | 1009.2 |
| 20260506150604 | 3 | 339 | 3.2 | 4.8 | 0.00 | 0.00 | 0.00 | 77 | 1009.2 |
| 20260506150103 | 3 | 0 | 1.6 | 3.2 | 0.00 | 0.00 | 0.00 | 76 | 1009.2 |
| 20260506145604 | 3 | 0 | 0.0 | 4.8 | 0.00 | 0.00 | 0.00 | 76 | 1009.3 |
| 20260506145103 | 3 | 345 | 1.6 | 4.8 | 0.00 | 0.00 | 0.00 | 76 | 1009.3 |
| 20260506144604 | 3 | 287 | 3.2 | 4.8 | 0.00 | 0.00 | 0.00 | 76 | 1009.2 |
| 20260506144105 | 3 | 0 | 1.6 | 4.8 | 0.00 | 0.00 | 0.00 | 78 | 1009.2 |
| 20260506143604 | 2 | 336 | 1.6 | 4.8 | 0.00 | 0.00 | 0.00 | 80 | 1009.2 |
| 20260506143104 | 2 | 0 | 1.6 | 8.0 | 0.00 | 0.00 | 0.00 | 80 | 1009.3 |
| 20260506142604 | 2 | 0 | 1.6 | 11.3 | 0.00 | 0.00 | 0.00 | 79 | 1009.4 |
| 20260506142104 | 3 | 0 | 3.2 | 4.8 | 0.00 | 0.00 | 0.00 | 74 | 1009.3 |
| 20260506141604 | 4 | 309 | 1.6 | 4.8 | 0.00 | 0.00 | 0.00 | 67 | 1009.1 |
| 20260506141103 | 5 | 214 | 3.2 | 8.0 | 0.00 | 0.00 | 0.00 | 66 | 1009.0 |
| 20260506140604 | 4 | 332 | 1.6 | 3.2 | 0.00 | 0.00 | 0.00 | 68 | 1008.9 |
| 20260506140103 | 4 | 359 | 1.6 | 3.2 | 0.00 | 0.00 | 0.00 | 67 | 1009.0 |
| 20260506135603 | 5 | 258 | 1.6 | 4.8 | 0.00 | 0.00 | 0.00 | 66 | 1008.9 |
| 20260506135104 | 5 | 327 | 1.6 | 4.8 | 0.00 | 0.00 | 0.00 | 66 | 1008.9 |
| 20260506134603 | 5 | 304 | 3.2 | 8.0 | 0.00 | 0.00 | 0.00 | 68 | 1008.8 |
| 20260506134104 | 5 | 209 | 1.6 | 4.8 | 0.00 | 0.00 | 0.00 | 68 | 1008.9 |
| 20260506133603 | 5 | 261 | 1.6 | 8.0 | 0.00 | 0.00 | 0.00 | 68 | 1008.9 |
| 20260506133104 | 5 | 340 | 1.6 | 4.8 | 0.00 | 0.00 | 0.00 | 66 | 1008.8 |
| 20260506132604 | 4 | 0 | 1.6 | 4.8 | 0.00 | 0.00 | 0.00 | 68 | 1008.8 |
| 20260506132104 | 4 | 314 | 4.8 | 14.5 | 0.00 | 0.00 | 0.00 | 70 | 1008.8 |
| 20260506131604 | 3 | 308 | 4.8 | 19.3 | 0.00 | 0.00 | 0.00 | 70 | 1008.9 |
| 20260506131103 | 4 | 356 | 3.2 | 4.8 | 0.00 | 0.00 | 0.00 | 69 | 1008.8 |
| 20260506130603 | 4 | 358 | 6.4 | 11.3 | 0.00 | 0.00 | 0.00 | 65 | 1008.8 |
| 20260506130104 | 4 | 345 | 4.8 | 16.1 | 0.00 | 0.00 | 0.00 | 68 | 1008.6 |
| 20260506125604 | 3 | 0 | 3.2 | 11.3 | 0.00 | 0.00 | 0.00 | 71 | 1008.7 |
| 20260506125105 | 3 | 0 | 1.6 | 4.8 | 0.00 | 0.00 | 0.00 | 70 | 1008.8 |
| 20260506124604 | 4 | 0 | 3.2 | 12.9 | 0.00 | 0.00 | 0.00 | 69 | 1008.8 |
| 20260506124103 | 5 | 0 | 3.2 | 8.0 | 0.00 | 0.00 | 0.00 | 64 | 1008.6 |
| 20260506123604 | 5 | 266 | 4.8 | 4.8 | 0.00 | 0.00 | 0.00 | 62 | 1008.5 |
| 20260506123104 | 4 | 323 | 4.8 | 9.7 | 0.00 | 0.00 | 0.00 | 69 | 1008.4 |
| 20260506122604 | 3 | 0 | 3.2 | 4.8 | 0.00 | 0.00 | 0.00 | 67 | 1008.4 |
| 20260506122104 | 3 | 0 | 4.8 | 12.9 | 0.00 | 0.00 | 0.00 | 68 | 1008.3 |
| 20260506121604 | 3 | 0 | 4.8 | 12.9 | 0.00 | 0.00 | 0.00 | 66 | 1008.4 |
| 20260506121104 | 3 | 0 | 4.8 | 19.3 | 0.00 | 0.00 | 0.00 | 67 | 1008.5 |
| 20260506120604 | 4 | 0 | 9.7 | 24.1 | 0.00 | 0.00 | 0.00 | 66 | 1008.5 |
| 20260506120104 | 5 | 0 | 14.5 | 22.5 | 0.00 | 0.00 | 0.00 | 62 | 1008.4 |
| 20260506115604 | 5 | 263 | 8.0 | 14.5 | 0.00 | 0.00 | 0.00 | 59 | 1008.2 |
| 20260506115104 | 5 | 303 | 4.8 | 9.7 | 0.00 | 0.00 | 0.00 | 63 | 1008.1 |
| 20260506114604 | 5 | 0 | 4.8 | 9.7 | 0.00 | 0.00 | 0.00 | 62 | 1008.1 |
| 20260506114104 | 5 | 0 | 3.2 | 12.9 | 0.00 | 0.00 | 0.00 | 62 | 1008.0 |
| 20260506113604 | 5 | 233 | 6.4 | 12.9 | 0.00 | 0.00 | 0.00 | 62 | 1008.0 |
| 20260506113104 | 5 | 223 | 3.2 | 12.9 | 0.00 | 0.00 | 0.00 | 64 | 1008.1 |
| 20260506112603 | 4 | 263 | 3.2 | 9.7 | 0.00 | 0.00 | 0.00 | 70 | 1008.1 |
| 20260506112103 | 3 | 316 | 3.2 | 12.9 | 0.00 | 0.00 | 0.00 | 72 | 1008.0 |
| 20260506111604 | 3 | 291 | 1.6 | 4.8 | 0.00 | 0.00 | 0.00 | 75 | 1008.1 |
| 20260506111104 | 3 | 346 | 0.0 | 4.8 | 0.00 | 0.00 | 0.00 | 73 | 1008.0 |
| 20260506110604 | 3 | 0 | 1.6 | 9.7 | 0.00 | 0.00 | 0.00 | 70 | 1008.0 |
| 20260506110103 | 3 | 0 | 1.6 | 3.2 | 0.00 | 0.00 | 0.00 | 70 | 1007.9 |
| 20260506105604 | 3 | 0 | 1.6 | 3.2 | 0.00 | 0.00 | 0.00 | 69 | 1007.8 |
| 20260506105103 | 3 | 327 | 1.6 | 3.2 | 0.00 | 0.00 | 0.00 | 68 | 1007.8 |
| 20260506104604 | 4 | 350 | 1.6 | 3.2 | 0.00 | 0.00 | 0.00 | 69 | 1007.8 |
| 20260506104104 | 4 | 344 | 1.6 | 4.8 | 0.00 | 0.00 | 0.00 | 72 | 1007.7 |
| 20260506103603 | 3 | 323 | 1.6 | 3.2 | 0.00 | 0.00 | 0.00 | 71 | 1007.7 |
| 20260506103103 | 4 | 355 | 3.2 | 4.8 | 0.00 | 0.00 | 0.00 | 68 | 1007.7 |
| 20260506102604 | 4 | 284 | 3.2 | 4.8 | 0.00 | 0.00 | 0.00 | 67 | 1007.6 |
| 20260506102104 | 4 | 320 | 3.2 | 4.8 | 0.00 | 0.00 | 0.00 | 68 | 1007.6 |
| 20260506101604 | 3 | 0 | 1.6 | 4.8 | 0.00 | 0.00 | 0.00 | 69 | 1007.6 |
| 20260506101104 | 3 | 0 | 1.6 | 3.2 | 0.00 | 0.00 | 0.00 | 69 | 1007.5 |
| 20260506100604 | 3 | 0 | 1.6 | 4.8 | 0.00 | 0.00 | 0.00 | 68 | 1007.5 |
| 20260506100103 | 5 | 356 | 3.2 | 4.8 | 0.00 | 0.00 | 0.00 | 62 | 1007.4 |
| 20260506095603 | 6 | 258 | 3.2 | 8.0 | 0.00 | 0.00 | 0.00 | 61 | 1007.3 |
| 20260506095103 | 5 | 350 | 3.2 | 8.0 | 0.00 | 0.00 | 0.00 | 62 | 1007.2 |
| 20260506094603 | 4 | 331 | 1.6 | 4.8 | 0.00 | 0.00 | 0.00 | 64 | 1007.2 |
| 20260506094104 | 4 | 0 | 1.6 | 3.2 | 0.00 | 0.00 | 0.00 | 64 | 1007.2 |
| 20260506093604 | 4 | 359 | 1.6 | 3.2 | 0.00 | 0.00 | 0.00 | 63 | 1007.1 |
| 20260506093104 | 5 | 337 | 3.2 | 11.3 | 0.00 | 0.00 | 0.00 | 65 | 1007.2 |
| 20260506092604 | 5 | 313 | 3.2 | 4.8 | 0.00 | 0.00 | 0.00 | 65 | 1007.2 |
| 20260506092104 | 5 | 289 | 1.6 | 4.8 | 0.00 | 0.00 | 0.00 | 67 | 1007.1 |
| 20260506091603 | 3 | 280 | 3.2 | 4.8 | 0.00 | 0.00 | 0.00 | 71 | 1007.1 |
| 20260506091103 | 3 | 248 | 1.6 | 1.6 | 0.00 | 0.00 | 0.00 | 69 | 1007.1 |
| 20260506090604 | 3 | 0 | 0.0 | 3.2 | 0.00 | 0.00 | 0.00 | 69 | 1007.1 |
| 20260506090104 | 3 | 341 | 1.6 | 3.2 | 0.00 | 0.00 | 0.00 | 68 | 1007.0 |
| 20260506085603 | 3 | 316 | 0.0 | 4.8 | 0.00 | 0.00 | 0.00 | 69 | 1007.0 |
| 20260506085103 | 3 | 353 | 0.0 | 3.2 | 0.00 | 0.00 | 0.00 | 68 | 1007.0 |
| 20260506084604 | 3 | 335 | 3.2 | 4.8 | 0.00 | 0.00 | 0.00 | 70 | 1007.0 |
| 20260506084104 | 3 | 313 | 1.6 | 3.2 | 0.00 | 0.00 | 0.00 | 71 | 1006.9 |
| 20260506083603 | 3 | 0 | 0.0 | 1.6 | 0.00 | 0.00 | 0.00 | 71 | 1006.9 |
| 20260506083104 | 3 | 0 | 0.0 | 1.6 | 0.00 | 0.00 | 0.00 | 70 | 1006.9 |
| 20260506082604 | 3 | 0 | 1.6 | 4.8 | 0.00 | 0.00 | 0.00 | 69 | 1006.9 |
| 20260506082104 | 3 | 345 | 1.6 | 4.8 | 0.00 | 0.00 | 0.00 | 69 | 1006.8 |
| 20260506081604 | 3 | 0 | 1.6 | 4.8 | 0.00 | 0.00 | 0.00 | 69 | 1006.7 |
| 20260506081104 | 3 | 0 | 0.0 | 1.6 | 0.00 | 0.00 | 0.00 | 71 | 1006.7 |
| 20260506080604 | 3 | 0 | 0.0 | 3.2 | 0.00 | 0.00 | 0.00 | 71 | 1006.6 |
| 20260506080104 | 3 | 0 | 1.6 | 4.8 | 0.00 | 0.00 | 0.00 | 71 | 1006.6 |
| 20260506073103 | 2 | 0 | 0.0 | 3.2 | 0.00 | 0.00 | 0.00 | 71 | 1006.3 |
| 20260506072604 | 2 | 0 | 1.6 | 3.2 | 0.00 | 0.00 | 0.00 | 71 | 1006.2 |
| 20260506072104 | 2 | 0 | 1.6 | 4.8 | 0.00 | 0.00 | 0.00 | 71 | 1006.2 |
| 20260506071604 | 3 | 0 | 1.6 | 4.8 | 0.00 | 0.00 | 0.00 | 72 | 1006.2 |
| 20260506071104 | 2 | 0 | 1.6 | 4.8 | 0.00 | 0.00 | 0.00 | 73 | 1006.1 |
| 20260506070604 | 2 | 0 | 1.6 | 4.8 | 0.00 | 0.00 | 0.00 | 74 | 1006.1 |
| 20260506070104 | 2 | 0 | 1.6 | 4.8 | 0.00 | 0.00 | 0.00 | 74 | 1006.0 |
| 20260506062104 | 1 | 0 | 4.8 | 11.3 | 0.00 | 0.00 | 0.00 | 78 | 1005.6 |
| 20260506061604 | 1 | 0 | 6.4 | 14.5 | 0.00 | 0.00 | 0.00 | 78 | 1005.6 |
| 20260506061104 | 1 | 0 | 4.8 | 9.7 | 0.00 | 0.00 | 0.00 | 78 | 1005.6 |
| 20260506060604 | 1 | 0 | 3.2 | 12.9 | 0.00 | 0.00 | 0.00 | 78 | 1005.6 |
| 20260506060104 | 1 | 0 | 4.8 | 8.0 | 0.00 | 0.00 | 0.00 | 79 | 1005.5 |
| 20260506051104 | 0 | 0 | 3.2 | 11.3 | 0.00 | 0.00 | 0.00 | 84 | 1005.1 |
| 20260506050603 | 0 | 0 | 3.2 | 12.9 | 0.00 | 0.00 | 0.00 | 84 | 1005.1 |
| 20260506050104 | 0 | 0 | 4.8 | 9.7 | 0.00 | 0.00 | 0.00 | 84 | 1005.1 |
| 20260506045104 | 0 | 0 | 4.8 | 11.3 | 0.00 | 0.00 | 0.00 | 83 | 1005.0 |
| 20260506044604 | 0 | 0 | 6.4 | 11.3 | 0.00 | 0.00 | 0.00 | 83 | 1004.9 |
| 20260506044104 | 0 | 0 | 4.8 | 9.7 | 0.00 | 0.00 | 0.00 | 83 | 1004.8 |
| 20260506043604 | 0 | 0 | 4.8 | 8.0 | 0.00 | 0.00 | 0.00 | 83 | 1004.8 |
| 20260506043103 | 0 | 0 | 3.2 | 8.0 | 0.00 | 0.00 | 0.00 | 83 | 1004.8 |
| 20260506042604 | 0 | 0 | 4.8 | 9.7 | 0.00 | 0.00 | 0.00 | 82 | 1004.7 |
| 20260506042104 | 0 | 0 | 4.8 | 9.7 | 0.00 | 0.00 | 0.00 | 82 | 1004.7 |
| 20260506041604 | 0 | 0 | 3.2 | 9.7 | 0.00 | 0.00 | 0.00 | 81 | 1004.7 |
| 20260506041104 | 0 | 0 | 4.8 | 11.3 | 0.00 | 0.00 | 0.00 | 80 | 1004.6 |
| 20260506040605 | 0 | 0 | 3.2 | 8.0 | 0.00 | 0.00 | 0.00 | 80 | 1004.6 |
| 20260506040104 | 0 | 0 | 3.2 | 9.7 | 0.00 | 0.00 | 0.00 | 79 | 1004.6 |
| 20260506035603 | 0 | 0 | 4.8 | 8.0 | 0.00 | 0.00 | 0.00 | 79 | 1004.6 |
| 20260506035103 | 0 | 0 | 4.8 | 9.7 | 0.00 | 0.00 | 0.00 | 79 | 1004.6 |
| 20260506034604 | 0 | 0 | 3.2 | 4.8 | 0.00 | 0.00 | 0.00 | 80 | 1004.5 |
| 20260506034103 | 0 | 0 | 3.2 | 4.8 | 0.00 | 0.00 | 0.00 | 81 | 1004.4 |
| 20260506033603 | 0 | 0 | 3.2 | 8.0 | 0.00 | 0.00 | 0.00 | 80 | 1004.4 |
| 20260506033103 | 0 | 0 | 1.6 | 4.8 | 0.00 | 0.00 | 0.00 | 81 | 1004.3 |
| 20260506032604 | 0 | 0 | 1.6 | 4.8 | 0.00 | 0.00 | 0.00 | 81 | 1004.3 |
| 20260506032104 | 0 | 0 | 1.6 | 4.8 | 0.00 | 0.00 | 0.00 | 82 | 1004.3 |
| 20260506031604 | -1 | 0 | 0.0 | 1.6 | 0.00 | 0.00 | 0.00 | 82 | 1004.3 |
| 20260506031104 | -1 | 0 | 0.0 | 1.6 | 0.00 | 0.00 | 0.00 | 82 | 1004.3 |
| 20260506030603 | -1 | 0 | 0.0 | 3.2 | 0.00 | 0.00 | 0.00 | 82 | 1004.3 |
| 20260506030104 | -1 | 0 | 0.0 | 3.2 | 0.00 | 0.00 | 0.00 | 83 | 1004.3 |
| 20260506025603 | -1 | 0 | 1.6 | 3.2 | 0.00 | 0.00 | 0.00 | 83 | 1004.2 |
| 20260506025104 | -1 | 0 | 1.6 | 4.8 | 0.00 | 0.00 | 0.00 | 83 | 1004.2 |
| 20260506024604 | -1 | 0 | 0.0 | 3.2 | 0.00 | 0.00 | 0.00 | 83 | 1004.2 |
| 20260506024104 | -1 | 0 | 0.0 | 1.6 | 0.00 | 0.00 | 0.00 | 83 | 1004.1 |
| 20260506023603 | -1 | 0 | 0.0 | 4.8 | 0.00 | 0.00 | 0.00 | 83 | 1004.1 |
| 20260506023103 | -1 | 0 | 0.0 | 3.2 | 0.00 | 0.00 | 0.00 | 83 | 1004.0 |
| 20260506022603 | -1 | 0 | 1.6 | 3.2 | 0.00 | 0.00 | 0.00 | 83 | 1004.0 |
| 20260506022103 | -1 | 0 | 1.6 | 4.8 | 0.00 | 0.00 | 0.00 | 83 | 1004.0 |
| 20260506021604 | -1 | 0 | 1.6 | 4.8 | 0.00 | 0.00 | 0.00 | 84 | 1004.0 |
| 20260506021104 | -1 | 0 | 0.0 | 1.6 | 0.00 | 0.00 | 0.00 | 84 | 1003.9 |
| 20260506020604 | -1 | 0 | 1.6 | 4.8 | 0.00 | 0.00 | 0.00 | 84 | 1003.9 |
| 20260506020104 | -2 | 0 | 3.2 | 8.0 | 0.00 | 0.00 | 0.00 | 85 | 1003.9 |
| 20260506015603 | -2 | 0 | 1.6 | 3.2 | 0.00 | 0.00 | 0.00 | 85 | 1004.0 |
| 20260506015103 | -2 | 0 | 0.0 | 3.2 | 0.00 | 0.00 | 0.00 | 84 | 1003.9 |
| 20260506014604 | -2 | 0 | 1.6 | 4.8 | 0.00 | 0.00 | 0.00 | 84 | 1003.9 |
| 20260506014104 | -2 | 0 | 0.0 | 3.2 | 0.00 | 0.00 | 0.00 | 83 | 1004.0 |
| 20260506013604 | -2 | 0 | 1.6 | 3.2 | 0.00 | 0.00 | 0.00 | 82 | 1003.9 |
| 20260506013104 | -2 | 0 | 0.0 | 1.6 | 0.00 | 0.00 | 0.00 | 82 | 1003.8 |
| 20260506012604 | -2 | 0 | 0.0 | 0.0 | 0.00 | 0.00 | 0.00 | 82 | 1003.7 |
| 20260506012104 | -2 | 0 | 1.6 | 3.2 | 0.00 | 0.00 | 0.00 | 82 | 1003.7 |
| 20260506011604 | -2 | 0 | 1.6 | 3.2 | 0.00 | 0.00 | 0.00 | 82 | 1003.7 |
| 20260506011103 | -2 | 0 | 0.0 | 0.0 | 0.00 | 0.00 | 0.00 | 82 | 1003.7 |
| 20260506010604 | -2 | 0 | 0.0 | 1.6 | 0.00 | 0.00 | 0.00 | 82 | 1003.7 |
| 20260506010103 | -2 | 0 | 0.0 | 0.0 | 0.00 | 0.00 | 0.00 | 81 | 1003.7 |
| 20260506005603 | -1 | 0 | 0.0 | 0.0 | 0.00 | 0.00 | 0.00 | 80 | 1003.6 |
| 20260506005103 | -1 | 0 | 0.0 | 3.2 | 0.00 | 0.00 | 0.00 | 80 | 1003.5 |
| 20260506004604 | -1 | 0 | 0.0 | 3.2 | 0.00 | 0.00 | 0.00 | 79 | 1003.5 |
| 20260506004103 | -1 | 0 | 1.6 | 4.8 | 0.00 | 0.00 | 0.00 | 80 | 1003.5 |
| 20260506003604 | -1 | 0 | 1.6 | 3.2 | 0.00 | 0.00 | 0.00 | 79 | 1003.6 |
| 20260506003104 | -1 | 0 | 3.2 | 9.7 | 0.00 | 0.00 | 0.00 | 80 | 1003.6 |
| 20260506002604 | -1 | 0 | 3.2 | 4.8 | 0.00 | 0.00 | 0.00 | 79 | 1003.5 |
| 20260506002104 | -1 | 0 | 3.2 | 4.8 | 0.00 | 0.00 | 0.00 | 79 | 1003.6 |
| 20260506001603 | -1 | 0 | 1.6 | 4.8 | 0.00 | 0.00 | 0.00 | 80 | 1003.5 |
| 20260506001103 | -1 | 0 | 3.2 | 8.0 | 0.00 | 0.00 | 0.00 | 80 | 1003.5 |
| 20260506000604 | -1 | 0 | 1.6 | 8.0 | 0.00 | 0.00 | 0.00 | 80 | 1003.5 |
| 20260506000103 | -1 | 0 | 3.2 | 8.0 | 0.00 | 0.00 | 0.00 | 80 | 1003.5 |
| 20260505235603 | -1 | 0 | 3.2 | 4.8 | 0.00 | 0.00 | 0.00 | 80 | 1003.5 |
| 20260505235103 | -1 | 0 | 3.2 | 4.8 | 0.00 | 0.00 | 0.00 | 79 | 1003.5 |
| 20260505234604 | -1 | 0 | 3.2 | 8.0 | 0.00 | 0.00 | 0.00 | 79 | 1003.5 |
| 20260505234103 | -1 | 0 | 3.2 | 9.7 | 0.00 | 0.00 | 0.00 | 79 | 1003.6 |
| 20260505233604 | -1 | 0 | 4.8 | 9.7 | 0.00 | 0.00 | 0.00 | 79 | 1003.6 |
| 20260505233104 | -1 | 0 | 3.2 | 4.8 | 0.00 | 0.00 | 0.00 | 80 | 1003.6 |
| 20260505232604 | -1 | 0 | 3.2 | 9.7 | 0.00 | 0.00 | 0.00 | 79 | 1003.6 |
| 20260505232104 | -1 | 0 | 1.6 | 4.8 | 0.00 | 0.00 | 0.00 | 79 | 1003.6 |
| 20260505231604 | -1 | 0 | 3.2 | 9.7 | 0.00 | 0.00 | 0.00 | 79 | 1003.6 |
| 20260505231104 | -1 | 0 | 3.2 | 8.0 | 0.00 | 0.00 | 0.00 | 78 | 1003.6 |
| 20260505230603 | -1 | 0 | 3.2 | 4.8 | 0.00 | 0.00 | 0.00 | 78 | 1003.6 |
| 20260505230104 | -1 | 0 | 3.2 | 9.7 | 0.00 | 0.00 | 0.00 | 78 | 1003.6 |
| 20260505225604 | -1 | 0 | 3.2 | 8.0 | 0.00 | 0.00 | 0.00 | 78 | 1003.6 |
| 20260505225104 | -1 | 0 | 1.6 | 4.8 | 0.00 | 0.00 | 0.00 | 78 | 1003.6 |
| 20260505224603 | -1 | 0 | 1.6 | 4.8 | 0.00 | 0.00 | 0.00 | 77 | 1003.6 |
| 20260505224104 | -1 | 0 | 4.8 | 19.3 | 0.00 | 0.00 | 0.00 | 77 | 1003.6 |
| 20260505223604 | -1 | 0 | 3.2 | 8.0 | 0.00 | 0.00 | 0.00 | 77 | 1003.6 |
| 20260505223104 | -1 | 0 | 3.2 | 8.0 | 0.00 | 0.00 | 0.00 | 77 | 1003.6 |
| 20260505222604 | -1 | 0 | 3.2 | 8.0 | 0.00 | 0.00 | 0.00 | 77 | 1003.7 |
| 20260505222104 | -1 | 0 | 4.8 | 9.7 | 0.00 | 0.00 | 0.00 | 77 | 1003.6 |
| 20260505221604 | -1 | 0 | 6.4 | 11.3 | 0.00 | 0.00 | 0.00 | 77 | 1003.6 |
| 20260505221108 | -1 | 0 | 3.2 | 11.3 | 0.00 | 0.00 | 0.00 | 77 | 1003.5 |
| 20260505220604 | -1 | 0 | 4.8 | 9.7 | 0.00 | 0.00 | 0.00 | 76 | 1003.5 |
| 20260505220104 | -1 | 0 | 4.8 | 8.0 | 0.00 | 0.00 | 0.00 | 76 | 1003.5 |
| 20260505215603 | -1 | 0 | 3.2 | 8.0 | 0.00 | 0.00 | 0.00 | 76 | 1003.5 |
| 20260505215104 | -1 | 0 | 4.8 | 9.7 | 0.00 | 0.00 | 0.00 | 75 | 1003.5 |
| 20260505214604 | -1 | 0 | 3.2 | 4.8 | 0.00 | 0.00 | 0.00 | 75 | 1003.5 |
| 20260505214103 | -1 | 0 | 4.8 | 12.9 | 0.00 | 0.00 | 0.00 | 75 | 1003.5 |
| 20260505213604 | -1 | 0 | 6.4 | 12.9 | 0.00 | 0.00 | 0.00 | 75 | 1003.5 |
| 20260505213104 | -1 | 0 | 4.8 | 12.9 | 0.00 | 0.00 | 0.00 | 74 | 1003.5 |
| 20260505212604 | -1 | 0 | 6.4 | 11.3 | 0.00 | 0.00 | 0.00 | 74 | 1003.5 |
| 20260505212104 | -1 | 0 | 4.8 | 12.9 | 0.00 | 0.00 | 0.00 | 73 | 1003.5 |
| 20260505211604 | -1 | 0 | 4.8 | 9.7 | 0.00 | 0.00 | 0.00 | 73 | 1003.5 |
| 20260505211104 | -1 | 0 | 6.4 | 12.9 | 0.00 | 0.00 | 0.00 | 72 | 1003.5 |
| 20260505210604 | 0 | 0 | 3.2 | 9.7 | 0.00 | 0.00 | 0.00 | 72 | 1003.4 |
| 20260505210104 | 0 | 0 | 4.8 | 9.7 | 0.00 | 0.00 | 0.00 | 71 | 1003.3 |
| 20260505205604 | 0 | 0 | 6.4 | 12.9 | 0.00 | 0.00 | 0.00 | 71 | 1003.3 |
| 20260505205104 | 0 | 0 | 4.8 | 11.3 | 0.00 | 0.00 | 0.00 | 71 | 1003.3 |
| 20260505204603 | 0 | 0 | 4.8 | 12.9 | 0.00 | 0.00 | 0.00 | 71 | 1003.2 |
| 20260505204104 | 0 | 0 | 4.8 | 11.3 | 0.00 | 0.00 | 0.00 | 70 | 1003.2 |
| 20260505203604 | 0 | 0 | 6.4 | 9.7 | 0.00 | 0.00 | 0.00 | 70 | 1003.3 |
| 20260505203104 | 0 | 0 | 4.8 | 11.3 | 0.00 | 0.00 | 0.00 | 69 | 1003.2 |
| 20260505202603 | 0 | 0 | 4.8 | 8.0 | 0.00 | 0.00 | 0.00 | 69 | 1003.3 |
| 20260505202104 | 0 | 0 | 4.8 | 9.7 | 0.00 | 0.00 | 0.00 | 68 | 1003.2 |
| 20260505201604 | 0 | 0 | 4.8 | 9.7 | 0.00 | 0.00 | 0.00 | 67 | 1003.2 |
| 20260505201104 | 0 | 0 | 4.8 | 9.7 | 0.00 | 0.00 | 0.00 | 67 | 1003.2 |
| 20260505200603 | 0 | 0 | 3.2 | 12.9 | 0.00 | 0.00 | 0.00 | 67 | 1003.1 |
| 20260505200104 | 1 | 0 | 8.0 | 14.5 | 0.00 | 0.00 | 0.00 | 66 | 1003.1 |
| 20260505195603 | 1 | 0 | 8.0 | 12.9 | 0.00 | 0.00 | 0.00 | 66 | 1003.1 |
| 20260505195104 | 1 | 0 | 4.8 | 11.3 | 0.00 | 0.00 | 0.00 | 65 | 1003.1 |
| 20260505194605 | 1 | 0 | 8.0 | 12.9 | 0.00 | 0.00 | 0.00 | 64 | 1003.1 |
| 20260505194103 | 1 | 0 | 8.0 | 14.5 | 0.00 | 0.00 | 0.00 | 64 | 1003.0 |
| 20260505193604 | 1 | 0 | 4.8 | 9.7 | 0.00 | 0.00 | 0.00 | 63 | 1002.9 |
| 20260505193105 | 1 | 0 | 3.2 | 9.7 | 0.00 | 0.00 | 0.00 | 63 | 1002.9 |
| 20260505192603 | 1 | 0 | 4.8 | 14.5 | 0.00 | 0.00 | 0.00 | 63 | 1002.9 |
| 20260505192103 | 1 | 0 | 3.2 | 8.0 | 0.00 | 0.00 | 0.00 | 62 | 1002.9 |
| 20260505191603 | 1 | 0 | 3.2 | 9.7 | 0.00 | 0.00 | 0.00 | 62 | 1002.9 |
| 20260505191104 | 1 | 0 | 3.2 | 8.0 | 0.00 | 0.00 | 0.00 | 63 | 1002.9 |
| 20260505190603 | 1 | 0 | 4.8 | 11.3 | 0.00 | 0.00 | 0.00 | 63 | 1002.9 |
| 20260505190104 | 1 | 0 | 4.8 | 11.3 | 0.00 | 0.00 | 0.00 | 63 | 1002.8 |
| 20260505185603 | 1 | 0 | 4.8 | 14.5 | 0.00 | 0.00 | 0.00 | 63 | 1002.8 |
| 20260505185103 | 2 | 0 | 4.8 | 9.7 | 0.00 | 0.00 | 0.00 | 63 | 1002.8 |
| 20260505184603 | 2 | 0 | 3.2 | 9.7 | 0.00 | 0.00 | 0.00 | 61 | 1002.7 |
| 20260505184104 | 2 | 0 | 3.2 | 9.7 | 0.00 | 0.00 | 0.00 | 61 | 1002.7 |
| 20260505183604 | 2 | 0 | 3.2 | 11.3 | 0.00 | 0.00 | 0.00 | 61 | 1002.7 |
| 20260505183104 | 2 | 0 | 4.8 | 9.7 | 0.00 | 0.00 | 0.00 | 61 | 1002.6 |
| 20260505182604 | 2 | 0 | 1.6 | 14.5 | 0.00 | 0.00 | 0.00 | 60 | 1002.6 |
| 20260505182104 | 2 | 0 | 3.2 | 9.7 | 0.00 | 0.00 | 0.00 | 59 | 1002.6 |
| 20260505181604 | 2 | 0 | 1.6 | 4.8 | 0.00 | 0.00 | 0.00 | 60 | 1002.6 |